Home   Weather   Wetzlar   Past weeks

Flag for Germany Past Weather in Wetzlar, Hesse, Germany — Yesterday and Last 2 Weeks

Now
54 °F

Clear.


Feels Like: 52 °F
Forecast: 51 / 57 °F
Wind: 6 mph from Southwest

Location: Frankfurt-M-Flughafen Airport

Current Time: Oct 2, 2016 at 12:20:02 AM

Latest Report: Oct 1, 2016 at 11:50 PM


Visibility: 10 mi

Pressure: 29.89 "Hg

Humidity: 94%

Dew Point: 52 °F

Location of WetzlarLocation

Past Weather in Wetzlar — Graph

°F

Wetzlar Temperature Yesterday

Maximum temperature yesterday: 63 °F (at 1:20 PM)
Minimum temperature yesterday: 54 °F (at 11:20 PM)
Average temperature yesterday: 58 °F

High & Low Weather Summary for the Past Weeks

 TemperatureHumidityPressure
High79 °F (Sep 29, 4:20 PM)100% (Sep 17, 6:20 AM)30.36 "Hg (Sep 17, 6:20 AM)
Low46 °F (Sep 21, 7:20 AM)37% (Sep 29, 4:20 PM)29.77 "Hg (Oct 1, 3:20 PM)
Average61 °F74%30.11 "Hg
* Reported Sep 16 11:20 PM — Oct 1 11:20 PM, Wetzlar, Weather by CustomWeather, © 2016

Note: Actual official high and low records may vary slightly from our data, if they occured in-between our weather recording intervals... More about our weather records

Advertising

Wetzlar Weather History for the Previous 24 Hours

Scroll right to see more
 ConditionsComfort  
Time TempWeatherWind HumidityBarometerVisibility
11:20 PM
Sat, Oct 1
54 °FClear.6 mph94%29.89 "Hg10 mi
10:50 PM55 °FClear.9 mph94%29.86 "Hg10 mi
10:20 PM55 °FClear.12 mph94%29.86 "Hg10 mi
9:50 PM55 °FClear.9 mph94%29.86 "Hg10 mi
9:20 PM57 °FPassing clouds.8 mph88%29.86 "HgN/A
8:50 PM59 °FPassing clouds.8 mph88%29.83 "HgN/A
8:20 PM57 °FPassing clouds.8 mph100%29.83 "HgN/A
7:50 PM59 °FPartly cloudy.8 mph94%29.83 "HgN/A
7:20 PM59 °FPassing clouds.8 mph100%29.83 "HgN/A
6:50 PM61 °FPartly sunny.9 mph88%29.80 "HgN/A
6:20 PM61 °FPartly sunny.10 mph94%29.80 "HgN/A
5:50 PM61 °FBroken clouds.10 mph94%29.80 "HgN/A
5:20 PM61 °FRain showers. Broken clouds.16 mph94%29.77 "Hg6 mi
4:50 PM63 °FRain showers. Partly sunny.7 mph88%29.77 "Hg5 mi
4:20 PM63 °FPartly sunny.7 mph94%29.77 "HgN/A
3:50 PM63 °FBroken clouds.10 mph94%29.77 "HgN/A
3:20 PM63 °FBroken clouds.5 mph88%29.77 "HgN/A
2:50 PM63 °FBroken clouds.10 mph88%29.80 "HgN/A
2:20 PM61 °FRain showers. Broken clouds.12 mph94%29.80 "Hg3 mi
1:50 PM63 °FBroken clouds.9 mph88%29.80 "HgN/A
1:20 PM63 °FBroken clouds.12 mph94%29.80 "HgN/A
12:50 PM61 °FCloudy.13 mph94%29.80 "HgN/A
12:20 PM61 °FLight rain. Mostly cloudy.10 mph94%29.80 "HgN/A
11:50 AM61 °FLight rain. Mostly cloudy.9 mph94%29.80 "HgN/A
11:20 AM61 °FLight rain. Mostly cloudy.7 mph94%29.80 "HgN/A
10:50 AM59 °FLight rain. Mostly cloudy.8 mph100%29.83 "HgN/A
10:20 AM59 °FLight rain. Mostly cloudy.3 mph94%29.83 "Hg6 mi
9:50 AM59 °FLight rain. Mostly cloudy.2 mph94%29.80 "Hg4 mi
9:20 AM57 °FRain. Partly sunny.3 mph94%29.80 "Hg4 mi
8:50 AM57 °FRain. Partly sunny.5 mph94%29.83 "Hg4 mi
8:20 AM55 °FLight rain. Partly sunny.2 mph100%29.83 "Hg5 mi
7:50 AM55 °FLight rain. Partly sunny.2 mph100%29.83 "Hg6 mi
7:20 AM55 °FLight rain. Passing clouds.5 mph100%29.83 "HgN/A
6:50 AM55 °FLight rain. Passing clouds.6 mph100%29.83 "HgN/A
6:20 AM55 °FLight rain. Passing clouds.7 mph94%29.83 "HgN/A
5:50 AM55 °FLight rain. Passing clouds.5 mph94%29.83 "HgN/A
5:20 AM55 °FLight rain. Partly cloudy.6 mph94%29.83 "Hg5 mi
4:50 AM55 °FLight rain. Partly cloudy.8 mph94%29.86 "Hg4 mi
4:20 AM55 °FRain. Partly cloudy.6 mph94%29.89 "Hg4 mi
3:50 AM55 °FRain. Mostly cloudy.3 mph94%29.89 "Hg4 mi
3:20 AM55 °FRain. Mostly cloudy.6 mph94%29.89 "Hg4 mi
2:50 AM55 °FRain. Overcast.5 mph94%29.92 "Hg4 mi
2:20 AM55 °FLight rain. Partly cloudy.3 mph94%29.92 "HgN/A
1:50 AM55 °FLight rain. Passing clouds.7 mph94%29.92 "HgN/A
1:20 AM57 °FLight rain. Partly cloudy.6 mph88%29.92 "HgN/A
12:50 AM57 °FPassing clouds.6 mph88%29.95 "HgN/A
12:20 AM55 °FPassing clouds.3 mph94%29.95 "HgN/A
Weather by CustomWeather, © 2016

See weather overviewHow to use our weather pages